Weather History for Naples, Italy

Change the Weather History Date:

Tuesday, August 6, 2013

  Actual Average Record
Temperature  
Mean Temperature 83 °F -  
Max Temperature 91 °F 84 °F 100 °F (2003)
Min Temperature 75 °F 63 °F 64 °F (2004)
Cooling Degree Days 18    
Growing Degree Days 33 (Base 50)    
Moisture  
Dew Point 72 °F    
Average Humidity 68    
Maximum Humidity 89    
Minimum Humidity 52    
Precipitation  
Precipitation 0.00 in 0.06 in - ()
Sea Level Pressure  
Sea Level Pressure 29.98 in    
Wind  
Wind Speed 4 mph ()    
Max Wind Speed 9 mph    
Max Gust Speed -    
Averages and records for this station are not official NWS values.
T = Trace of Precipitation, MM = Missing Value Source: Averaged Metar Reports

Daily Weather History Graph

Daily Weather History Graph

Search for Another Location

Airport:

Trip Planner

Search our weather history database for the weather conditions in past years. The results will help you decide how hot, cold, wet, or windy it might be!

Date:

Astronomy

Aug. 06, 2013 Rise Set
Actual Time 6:03 AM CEST 8:12 PM CEST
Civil Twilight 5:33 AM CEST 8:43 PM CEST
Nautical Twilight 4:56 AM CEST 9:20 PM CEST
Astronomical Twilight 4:15 AM CEST 10:00 PM CEST
Moon 5:39 AM CEST (8/6) 7:37 PM CEST (8/6)
Length of Visible Light 15h 09m
Length of Day
14h 08m
Waning Crescent, 0% of the Moon is Illuminated
Aug 6
Waning Crescent
Aug 6
New
Aug 14
First Quarter
Aug 21
Full
Aug 28
Last Quarter

Hourly Weather History & Observations

Time (CEST) Temp. Heat Index Dew Point Humidity Pressure Visibility Wind Dir Wind Speed Gust Speed Precip Events Conditions
12:20 AM 80.6 °F 85.4 °F 73.4 °F 79% 30.01 in - SSW 3.5 mph - N/A   Clear
12:50 AM 80.6 °F 85.4 °F 73.4 °F 79% 30.01 in - SSW 4.6 mph - N/A   Clear
1:20 AM 78.8 °F - 73.4 °F 83% 30.01 in - SSW 3.5 mph - N/A   Clear
1:50 AM 78.8 °F - 73.4 °F 83% 30.01 in - SSW 3.5 mph - N/A   Clear
2:20 AM 78.8 °F - 71.6 °F 78% 30.01 in - South 2.3 mph - N/A   Clear
2:50 AM 78.8 °F - 73.4 °F 83% 29.98 in - South 2.3 mph - N/A   Clear
3:20 AM 78.8 °F - 73.4 °F 83% 29.98 in - South 2.3 mph - N/A   Clear
3:50 AM 77.0 °F - 73.4 °F 89% 29.98 in - Calm Calm - N/A   Clear
4:20 AM 75.2 °F - 68.0 °F 78% 29.98 in - ENE 1.2 mph - N/A   Clear
4:50 AM 77.0 °F - 69.8 °F 78% 29.98 in - Calm Calm - N/A   Clear
5:20 AM 77.0 °F - 68.0 °F 74% 29.98 in - North 2.3 mph - N/A   Clear
5:50 AM 77.0 °F - 68.0 °F 74% 29.98 in - NNE 4.6 mph - N/A   Clear
6:20 AM 77.0 °F - 68.0 °F 74% 29.98 in - North 3.5 mph - N/A   Clear
6:50 AM 77.0 °F - 69.8 °F 78% 30.01 in - North 2.3 mph - N/A   Clear
7:20 AM 78.8 °F - 69.8 °F 74% 30.01 in - Variable 2.3 mph - N/A   Clear
7:50 AM 80.6 °F 83.9 °F 69.8 °F 70% 30.01 in - Variable 2.3 mph - N/A   Clear
8:20 AM 80.6 °F 83.9 °F 69.8 °F 70% 30.01 in - NNE 3.5 mph - N/A   Clear
8:50 AM 82.4 °F 86.3 °F 69.8 °F 66% 30.01 in - Variable 2.3 mph - N/A   Clear
9:20 AM 84.2 °F 87.3 °F 68.0 °F 58% 30.01 in - Variable 2.3 mph - N/A   Clear
9:50 AM 86.0 °F 90.4 °F 69.8 °F 58% 30.01 in - NNE 4.6 mph - N/A   Clear
10:20 AM 87.8 °F 92.6 °F 69.8 °F 55% 30.01 in - Variable 2.3 mph - N/A   Clear
10:50 AM 89.6 °F 94.7 °F 69.8 °F 52% 30.01 in - Variable 2.3 mph - N/A   Clear
11:20 AM 89.6 °F 96.2 °F 71.6 °F 55% 30.01 in - SSW 3.5 mph - N/A   Clear
11:50 AM 89.6 °F 96.2 °F 71.6 °F 55% 30.01 in - South 6.9 mph - N/A   Clear
12:20 PM 89.6 °F 98.2 °F 73.4 °F 59% 30.01 in - South 8.1 mph - N/A   Clear
12:50 PM 89.6 °F 99.8 °F 75.2 °F 62% 30.01 in - South 9.2 mph - N/A   Clear
1:20 PM 89.6 °F 99.8 °F 75.2 °F 62% 30.01 in - South 9.2 mph - N/A   Clear
1:50 PM 89.6 °F 99.8 °F 75.2 °F 62% 29.98 in - SSW 9.2 mph - N/A   Clear
2:20 PM 91.4 °F 100.1 °F 73.4 °F 55% 29.98 in - South 9.2 mph - N/A   Clear
2:50 PM 89.6 °F 99.8 °F 75.2 °F 62% 29.98 in - South 9.2 mph - N/A   Clear
3:20 PM 89.6 °F 99.8 °F 75.2 °F 62% 29.98 in - South 9.2 mph - N/A   Clear
3:50 PM 87.8 °F 97.6 °F 75.2 °F 66% 29.98 in - South 9.2 mph - N/A   Clear
4:20 PM 87.8 °F 97.6 °F 75.2 °F 66% 29.98 in - South 9.2 mph - N/A   Clear
4:50 PM 89.6 °F 98.2 °F 73.4 °F 59% 29.98 in - South 6.9 mph - N/A   Clear
5:20 PM 89.6 °F 98.2 °F 73.4 °F 59% 29.95 in - SSE 6.9 mph - N/A   Clear
5:50 PM 89.6 °F 94.7 °F 69.8 °F 52% 29.95 in - South 6.9 mph - N/A   Clear
6:20 PM 89.6 °F 94.7 °F 69.8 °F 52% 29.95 in - South 6.9 mph - N/A   Clear
6:50 PM 87.8 °F 93.8 °F 71.6 °F 58% 29.95 in - South 4.6 mph - N/A   Clear
7:20 PM 87.8 °F 93.8 °F 71.6 °F 58% 29.95 in - South 4.6 mph - N/A   Clear
7:50 PM 86.0 °F 90.4 °F 69.8 °F 58% 29.95 in - South 5.8 mph - N/A   Clear
8:20 PM 84.2 °F 89.6 °F 71.6 °F 66% 29.95 in - South 5.8 mph - N/A   Clear
8:50 PM 82.4 °F 88.2 °F 73.4 °F 74% 29.95 in - Variable 2.3 mph - N/A   Clear
9:20 PM 82.4 °F 88.2 °F 73.4 °F 74% 29.95 in - South 2.3 mph - N/A   Clear
9:50 PM 84.2 °F 90.9 °F 73.4 °F 70% 29.95 in - WNW 5.8 mph - N/A   Clear
10:20 PM 82.4 °F 87.2 °F 71.6 °F 70% 29.95 in - East 3.5 mph - N/A   Clear
10:50 PM 82.4 °F 86.3 °F 69.8 °F 66% 29.95 in - NNE 3.5 mph - N/A   Clear
11:20 PM 80.6 °F 84.6 °F 71.6 °F 74% 29.95 in - ENE 3.5 mph - N/A   Clear
11:50 PM 80.6 °F 84.6 °F 71.6 °F 74% 29.95 in - Variable 2.3 mph - N/A   Clear